CW3330 Weather Reports


Display with metric or nautical units.
time (UTC)temp
F
wind
direction
speed
MPH
gust
MPH
rain 1hr
in
rain 24hr
in
rain mn
in
humidity
%
barometer
mb
20260507083306 54 17 6.0 11.0 0.00 0.00 0.00 67 1015.5
20260507082744 53 65 5.0 13.0 0.00 0.00 0.00 68 1015.3
20260507081306 52 5 5.0 13.0 0.00 0.00 0.00 68 1015.3
20260507080307 52 52 6.0 13.0 0.00 0.00 0.00 70 1015.5
20260507075307 52 133 7.0 12.0 0.00 0.00 0.00 69 1015.2
20260507074305 51 69 7.0 11.0 0.00 0.00 0.00 70 1015.1
20260507073305 51 107 5.0 12.0 0.00 0.00 0.00 71 1015.0
20260507072307 51 83 4.0 14.0 0.00 0.00 0.00 72 1014.9
20260507071305 50 71 5.0 13.0 0.00 0.00 0.00 69 1015.2
20260507070306 50 76 7.0 11.0 0.00 0.00 0.00 77 1015.0
20260507065307 49 57 3.0 13.0 0.00 0.00 0.00 78 1014.9
20260507064305 49 49 2.0 11.0 0.00 0.00 0.00 79 1015.0
20260507063800 49 107 4.0 13.0 0.00 0.00 0.00 80 1014.9
20260507062306 48 85 4.0 12.0 0.00 0.00 0.00 81 1014.8
20260507061305 48 45 5.0 12.0 0.00 0.00 0.00 83 1014.6
20260507060740 47 100 3.0 11.0 0.00 0.00 0.00 85 1014.5
20260507055306 47 70 5.0 10.0 0.00 0.00 0.00 85 1014.5
20260507054306 46 83 4.0 10.0 0.00 0.00 0.00 87 1014.5
20260507053306 46 70 2.0 9.0 0.00 0.00 0.00 88 1014.5
20260507052307 45 86 4.0 7.0 0.00 0.00 0.00 90 1014.3
20260507051306 44 64 3.0 5.0 0.00 0.00 0.00 91 1014.2
20260507050306 43 62 1.0 3.0 0.00 0.00 0.00 92 1014.1
20260507045307 43 61 0.0 0.0 0.00 0.00 0.00 92 1014.0
20260507044305 42 61 0.0 0.0 0.00 0.00 0.00 93 1013.7
20260507042307 41 61 0.0 0.0 0.00 0.00 0.00 93 1013.7
20260507041305 40 61 0.0 0.0 0.00 0.00 0.00 93 1013.6
20260507040306 40 61 0.0 0.0 0.00 0.00 0.00 93 1013.6
20260507035306 40 61 0.0 0.0 0.00 0.00 0.00 92 1013.5
20260507034305 40 61 0.0 0.0 0.00 0.00 0.00 92 1013.4
20260507033306 41 61 0.0 0.0 0.00 0.00 0.00 92 1013.4
20260507032748 41 61 0.0 2.0 0.00 0.00 0.00 92 1013.3
20260507031750 41 61 1.0 2.0 0.00 0.00 0.00 92 1013.3
20260507030319 41 61 1.0 3.0 0.00 0.00 0.00 92 1013.3
20260507024306 42 61 2.0 4.0 0.00 0.00 0.00 92 1013.1
20260507023754 42 59 0.0 3.0 0.00 0.00 0.00 91 1013.1
20260507022306 42 58 2.0 4.0 0.00 0.00 0.00 91 1013.1
20260507021319 42 60 2.0 4.0 0.00 0.00 0.00 91 1012.9
20260507020310 42 60 2.0 4.0 0.00 0.00 0.00 91 1012.8
20260507015308 42 60 3.0 4.0 0.00 0.00 0.00 91 1012.8
20260507014306 42 61 1.0 3.0 0.00 0.00 0.00 90 1012.6
20260507013306 42 61 2.0 3.0 0.00 0.00 0.00 90 1012.6
20260507012800 42 62 1.0 3.0 0.00 0.00 0.00 89 1012.6
20260507011305 42 62 2.0 3.0 0.00 0.00 0.00 89 1012.6
20260507010306 43 63 1.0 3.0 0.00 0.00 0.00 89 1012.5
20260507005306 43 63 2.0 3.0 0.00 0.00 0.00 89 1012.4
20260507004305 43 63 1.0 3.0 0.00 0.00 0.00 89 1012.4
20260507003306 43 62 2.0 3.0 0.00 0.00 0.00 89 1012.3
20260507002744 43 62 2.0 2.0 0.00 0.00 0.00 89 1012.3
20260507001745 44 62 1.0 2.0 0.00 0.00 0.00 88 1012.3
20260507000744 44 62 0.0 2.0 0.00 0.00 0.00 87 1012.3
20260506235306 44 62 2.0 4.0 0.00 0.00 0.00 87 1012.2
20260506234305 45 61 2.0 3.0 0.00 0.00 0.00 87 1012.3
20260506233748 45 59 3.0 8.0 0.00 0.00 0.00 86 1012.3
20260506232741 46 72 3.0 7.0 0.00 0.00 0.00 85 1012.3
20260506231320 46 82 3.0 10.0 0.00 0.00 0.00 85 1012.1
20260506230319 46 98 3.0 8.0 0.00 0.00 0.00 85 1012.0
20260506225744 46 82 2.0 8.0 0.00 0.00 0.00 85 1012.0
20260506224305 46 70 3.0 8.0 0.00 0.00 0.00 84 1012.0
20260506223751 47 72 5.0 9.0 0.00 0.00 0.00 83 1011.9
20260506222307 47 73 3.0 11.0 0.00 0.00 0.00 83 1011.8
20260506221322 47 81 4.0 10.0 0.00 0.00 0.00 83 1011.8
20260506220336 47 74 6.0 10.0 0.00 0.00 0.00 83 1011.7
20260506215307 47 82 4.0 10.0 0.00 0.00 0.00 84 1011.7
20260506214324 47 80 4.0 11.0 0.00 0.00 0.00 83 1011.7
20260506213749 48 74 3.0 11.0 0.00 0.00 0.00 83 1011.5
20260506212306 48 80 6.0 12.0 0.00 0.00 0.00 83 1011.4
20260506211305 48 96 6.0 12.0 0.00 0.00 0.00 83 1011.4
20260506210744 48 90 3.0 11.0 0.00 0.00 0.00 83 1011.4
20260506205306 48 100 5.0 11.0 0.00 0.00 0.00 83 1011.3
20260506204307 48 84 4.0 11.0 0.00 0.00 0.00 83 1011.3
20260506203306 49 86 6.0 11.0 0.00 0.00 0.00 82 1011.2
20260506202306 49 46 8.0 12.0 0.00 0.00 0.00 82 1011.2
20260506201313 49 28 4.0 12.0 0.00 0.00 0.00 82 1011.2
20260506200306 49 40 5.0 11.0 0.00 0.00 0.00 81 1011.1
20260506195307 49 78 5.0 13.0 0.00 0.00 0.00 79 1010.9
20260506194307 50 39 4.0 10.0 0.00 0.00 0.00 77 1010.9
20260506193306 50 42 4.0 12.0 0.00 0.00 0.00 76 1010.9
20260506192740 50 69 7.0 12.0 0.00 0.00 0.00 75 1010.8
20260506191306 51 49 6.0 13.0 0.00 0.00 0.00 76 1010.7
20260506190307 51 64 5.0 10.0 0.00 0.00 0.00 76 1010.5
20260506185307 51 40 6.0 13.0 0.00 0.00 0.00 75 1010.4
20260506184744 52 67 5.0 13.0 0.00 0.00 0.00 74 1010.2
20260506183307 52 69 6.0 11.0 0.00 0.00 0.00 73 1010.3
20260506182307 53 65 4.0 12.0 0.00 0.00 0.00 74 1010.2
20260506181305 53 55 5.0 11.0 0.00 0.00 0.00 75 1010.1
20260506180308 54 82 4.0 14.0 0.00 0.00 0.00 74 1010.0
20260506175306 54 70 6.0 12.0 0.00 0.00 0.00 73 1009.8
20260506174305 54 41 5.0 10.0 0.00 0.00 0.00 72 1009.9
20260506173306 55 74 5.0 12.0 0.00 0.00 0.00 71 1009.7
20260506172307 55 63 4.0 13.0 0.00 0.00 0.00 70 1009.7
20260506171309 56 71 5.0 14.0 0.00 0.00 0.00 68 1009.6
20260506170306 56 64 9.0 12.0 0.00 0.00 0.00 66 1009.5
20260506165306 56 32 5.0 14.0 0.00 0.00 0.00 65 1009.5
20260506164305 56 72 7.0 14.0 0.00 0.00 0.00 66 1009.5
20260506163749 56 34 6.0 13.0 0.00 0.00 0.00 61 1009.5
20260506162307 57 40 6.0 16.0 0.00 0.00 0.00 65 1009.5
20260506161305 57 59 5.0 13.0 0.00 0.00 0.00 65 1009.5
20260506160805 57 20 5.0 13.0 0.00 0.00 0.00 63 1009.5
20260506155306 58 46 7.0 14.0 0.00 0.00 0.00 55 1009.5
20260506154305 58 84 4.0 12.0 0.00 0.00 0.00 57 1009.6
20260506153305 58 59 7.0 14.0 0.00 0.00 0.00 56 1009.6
20260506152748 58 59 5.0 11.0 0.00 0.00 0.00 55 1009.6
20260506151305 58 61 7.0 12.0 0.00 0.00 0.00 52 1009.5
20260506150307 58 63 7.0 17.0 0.00 0.00 0.00 52 1009.5
20260506145306 58 31 8.0 14.0 0.00 0.00 0.00 52 1009.5
20260506144306 58 61 7.0 16.0 0.00 0.00 0.00 50 1009.5
20260506143306 58 65 9.0 17.0 0.00 0.00 0.00 49 1009.5
20260506142744 58 24 7.0 13.0 0.00 0.00 0.00 50 1009.5
20260506141305 58 45 9.0 16.0 0.00 0.00 0.00 50 1009.5
20260506140306 58 63 7.0 17.0 0.00 0.00 0.00 49 1009.6
20260506135306 58 34 6.0 14.0 0.00 0.00 0.00 49 1009.5
20260506134307 58 46 7.0 19.0 0.00 0.00 0.00 49 1009.5
20260506133306 58 17 10.0 19.0 0.00 0.00 0.00 47 1009.4
20260506132307 59 32 8.0 17.0 0.00 0.00 0.00 46 1009.3
20260506131305 59 51 7.0 19.0 0.00 0.00 0.00 48 1009.3
20260506130306 59 80 9.0 16.0 0.00 0.00 0.00 48 1009.3
20260506125307 60 355 11.0 18.0 0.00 0.00 0.00 50 1009.2
20260506124305 60 91 10.0 19.0 0.00 0.00 0.00 51 1009.2
20260506123306 60 70 7.0 17.0 0.00 0.00 0.00 50 1009.0
20260506122306 60 63 10.0 19.0 0.00 0.00 0.00 52 1009.0
20260506121305 59 19 9.0 17.0 0.00 0.00 0.00 53 1008.9
20260506120306 60 91 12.0 19.0 0.00 0.00 0.00 51 1008.9
20260506115307 60 28 9.0 20.0 0.00 0.00 0.00 52 1009.0
20260506114306 59 57 12.0 19.0 0.00 0.00 0.00 52 1009.0
20260506112816 59 19 12.0 20.0 0.00 0.00 0.00 47 1009.1
20260506111317 58 20 9.0 16.0 0.00 0.00 0.00 54 1009.0
20260506110746 58 90 12.0 19.0 0.00 0.00 0.00 52 1009.1
20260506105306 58 84 10.0 18.0 0.00 0.00 0.00 53 1009.1
20260506104306 58 30 10.0 19.0 0.00 0.00 0.00 53 1009.1
20260506103308 57 34 8.0 21.0 0.00 0.00 0.00 54 1009.2
20260506102756 57 66 10.0 18.0 0.00 0.00 0.00 55 1009.2
20260506101737 56 47 10.0 20.0 0.00 0.00 0.00 52 1009.2
20260506100307 56 86 9.0 19.0 0.00 0.00 0.00 57 1009.3
20260506095306 56 26 12.0 23.0 0.00 0.00 0.00 56 1009.6
20260506094305 55 80 13.0 19.0 0.00 0.00 0.00 56 1009.4
20260506093320 55 327 9.0 22.0 0.00 0.00 0.00 57 1009.4
20260506092306 55 24 11.0 19.0 0.00 0.00 0.00 58 1009.4
20260506091306 54 46 10.0 20.0 0.00 0.00 0.00 58 1009.5
20260506090306 54 27 14.0 21.0 0.00 0.00 0.00 53 1009.4
20260506085306 55 27 7.0 17.0 0.00 0.00 0.00 60 1009.4
20260506084755 54 69 7.0 17.0 0.00 0.00 0.00 59 1009.3